FALCON 9 DEB (56363 NORAD) Tracking and Keplerian Element Data

This shows tracking and keplerian element data for the satellite.

Feedback or suggestion? Click here.




ElementValue
Catalog56363
NameFALCON 9 DEB
Epoch Orbit751
Epoch Day161.75875752
Epoch Year2023
RAAN166.1885
Inclination97.6607
Eccentricity0.0018035
Argument of Perigee104.3338
Mean Anonmoly255.995
Mean Motion16.1361238
Decay Rate0.01020048
L11 56363U 23058AY 23161.75875752 .01020048 67200-3 85041-3 0 9994
L22 56363 97.6607 166.1885 0018035 104.3338 255.9950 16.13612380 7513



Live tracking and technical data element details for FALCON 9 DEB (NORAD 56363). FALCON 9 DEB can be tracked NOW for your location showing map with azimuth and elevation plus other details from your city location.







IsCatalogInMostPopularTable: catalog: 56363, numindb: 90
Update: records affected: 1



GetName: 56363 FALCON 9 DEB

Hit Count: updated at: Thu, 28 Sep 2023 04:26:29 GMT